Theta_e
324 324 325 324 324 323 323 323 323 323 322 322 322 322 322 322 322 322 321 321 321 321 321 321 321 321 320 320 322 324 324 324 323 323 322 322 320 319 318 317 317 316 315 315 315 315 315 315 315 314 313 313 312 311 310 310 310 309 308 307 305 304 304 305 306 306 306 306 306
324 324 324 324 324 323 323 322 322 322 322 322 322 321 321 322 322 321 321 321 321 321 320 320 320 319 319 319 322 323 324 324 323 323 322 321 320 319 318 318 317 316 316 315 315 315 315 315 315 314 313 312 312 311 311 310 311 310 309 308 307 307 307 307 307 306 305 305 305
324 324 324 324 323 323 322 322 321 321 321 321 321 321 321 322 322 321 321 320 320 320 319 320 319 319 319 319 321 323 324 324 323 322 322 321 320 319 319 318 317 317 317 316 316 316 316 315 315 315 314 312 312 312 311 310 310 310 309 309 309 308 307 306 305 305 305 304 304
324 324 324 323 323 323 322 322 321 320 320 320 319 320 321 321 321 320 320 318 318 319 319 319 320 319 319 319 321 323 324 324 322 322 321 321 320 319 319 319 318 317 316 316 316 316 315 315 315 314 313 312 312 311 310 309 309 308 307 307 307 306 305 305 305 305 304 304 303
323 324 324 323 323 323 322 322 321 320 320 320 320 320 320 320 319 319 318 319 319 318 319 318 319 320 319 320 321 323 323 323 322 322 322 321 320 320 319 318 317 317 316 316 316 316 315 315 315 314 313 312 311 310 309 308 307 307 306 306 305 305 305 304 304 304 304 304 303
323 323 323 323 323 322 322 322 321 320 320 320 320 320 320 320 319 319 318 318 318 318 317 318 319 319 319 319 321 322 323 323 322 322 321 321 321 320 319 318 317 317 316 316 316 316 315 315 314 313 312 311 310 309 308 308 307 306 305 305 305 305 305 305 304 304 303 303 302
323 323 323 323 322 322 322 321 321 321 321 320 320 319 319 319 319 318 318 319 318 318 318 319 319 318 319 319 321 322 322 322 322 322 322 321 320 319 318 317 317 317 317 316 316 315 315 314 313 312 311 310 309 308 307 307 307 306 305 305 305 305 305 304 304 303 303 302 302
323 323 323 322 321 321 321 321 321 321 321 320 320 319 319 319 318 318 318 319 318 318 318 319 318 318 319 320 321 322 322 322 322 322 322 321 319 318 318 317 317 317 316 316 315 314 313 313 312 311 309 309 307 307 307 307 306 305 304 304 304 304 304 304 303 303 302 302 301
323 322 322 321 321 321 321 320 320 320 320 320 319 319 319 318 318 318 318 319 318 318 318 318 318 318 319 321 321 322 322 322 322 321 321 320 319 318 317 317 316 315 314 314 313 312 312 311 310 309 309 307 307 306 306 306 305 304 304 303 303 302 302 302 301 301 301 300 300
322 321 321 321 321 320 320 320 320 319 319 319 318 318 319 319 319 319 319 319 319 318 318 318 319 319 320 321 322 322 322 322 321 320 320 318 317 317 316 315 314 313 312 312 311 311 310 309 309 307 307 306 306 305 305 305 305 304 303 303 302 301 301 300 299 299 298 299 298
321 321 321 321 320 320 320 320 319 319 319 318 318 318 319 319 319 319 319 319 318 318 318 318 319 320 320 321 321 322 322 321 320 319 318 317 316 315 314 314 313 312 311 311 311 310 310 308 307 306 306 305 305 305 305 305 304 303 302 302 301 300 299 299 298 298 298 298 298
321 321 320 320 320 320 320 319 319 319 318 318 318 319 319 319 319 319 319 318 318 318 318 319 320 320 320 321 321 321 320 319 318 317 316 315 315 314 314 313 312 312 311 311 311 310 309 308 306 306 305 305 305 305 305 304 303 302 301 301 301 300 299 299 299 298 298 298 297
321 320 320 320 320 320 319 319 319 319 318 318 318 319 320 319 319 319 319 318 318 318 319 319 320 320 321 321 320 320 319 318 317 316 315 314 314 313 312 312 311 311 310 311 310 309 308 307 306 306 305 305 305 304 304 303 302 301 301 300 299 299 298 298 298 297 297 297 296
320 320 320 320 320 320 320 319 319 319 319 319 319 320 320 320 320 320 320 319 319 319 319 320 320 321 320 320 319 319 318 317 316 315 314 313 312 311 311 310 310 310 310 310 309 308 308 307 306 306 305 305 304 304 303 302 302 300 300 299 298 298 297 296 296 296 295 294 293
320 320 320 320 320 320 320 320 320 320 320 319 320 320 320 321 321 321 321 320 320 319 319 319 320 320 319 319 318 317 316 316 314 313 312 312 311 310 310 310 310 309 309 309 308 308 307 307 306 305 305 304 303 302 302 301 300 300 299 298 297 296 295 295 294 294 293 292 290
320 319 320 320 320 320 320 320 320 320 320 320 320 320 321 321 321 321 320 319 319 318 318 318 318 318 318 317 317 316 315 314 313 312 311 311 310 310 310 309 309 308 308 308 307 307 307 306 305 304 303 302 302 301 300 299 299 298 298 297 296 295 294 294 293 292 290 289 288
319 319 319 320 320 320 320 320 321 320 320 320 320 320 321 320 321 320 319 318 318 317 316 316 316 316 315 315 315 314 314 313 312 312 311 311 310 309 309 308 308 308 307 306 306 305 304 304 303 303 302 301 300 299 298 297 296 296 295 294 293 293 292 292 291 289 288 288 287
319 319 319 320 320 320 320 320 320 320 320 320 320 320 320 320 319 319 318 317 317 316 315 315 314 314 314 313 313 313 313 312 312 311 310 310 309 308 308 307 307 306 306 305 304 303 303 302 301 300 299 298 297 296 296 295 294 293 292 291 290 290 289 289 288 288 288 288 287
319 319 319 320 320 320 320 320 320 320 320 320 320 319 319 319 318 318 317 316 316 315 314 313 313 313 313 312 312 311 311 311 310 309 309 309 308 307 307 306 306 305 304 304 303 302 301 300 299 298 297 296 295 295 294 293 293 292 291 290 288 288 287 286 286 286 286 286 285
318 319 319 320 320 320 320 319 319 319 320 319 319 318 318 318 317 316 315 315 314 314 313 312 312 311 311 311 310 310 310 309 309 308 308 307 307 306 305 304 304 303 303 302 301 300 299 298 297 296 295 294 294 293 293 292 291 291 290 289 287 287 286 286 286 286 286 286 286
319 319 320 320 320 319 319 319 319 319 319 318 318 317 317 316 315 314 314 314 313 313 312 312 311 310 310 309 309 308 308 308 307 307 306 306 305 305 304 303 303 302 302 301 300 299 298 297 296 295 294 294 293 292 292 291 290 289 289 288 287 286 286 286 286 287 287 287 287
319 319 320 320 319 319 319 319 319 318 317 316 316 316 315 314 313 313 313 313 312 312 311 310 309 309 308 307 306 306 305 305 305 305 304 303 303 303 302 302 301 300 299 298 298 297 296 295 294 294 293 292 292 291 291 290 289 288 287 286 286 286 286 286 286 286 286 286 286
318 319 319 319 319 319 318 317 317 316 316 315 314 313 313 312 312 312 311 311 310 309 308 307 307 306 305 305 304 303 303 303 302 302 301 301 300 300 300 299 298 297 296 295 294 292 292 292 291 291 290 290 290 290 289 289 288 287 286 285 285 285 285 285 285 285 285 285 285
318 318 319 318 317 317 317 316 315 314 313 313 312 311 311 310 310 309 308 308 307 306 306 305 304 304 303 303 302 302 301 300 300 299 299 299 299 298 297 296 295 294 293 293 292 291 290 290 288 288 289 290 289 289 288 287 286 286 285 284 284 284 284 284 284 284 284 284 284
317 317 317 317 316 316 315 314 314 313 312 311 310 309 309 308 307 307 306 305 304 303 303 303 303 302 302 302 301 301 300 299 298 298 297 297 297 296 296 295 294 293 293 295 296 295 294 293 291 290 289 290 289 288 287 286 285 285 284 284 283 283 282 282 282 282 282 282 283
317 316 316 316 315 314 314 313 312 311 310 309 308 308 307 306 305 304 304 303 302 302 302 302 302 302 301 301 300 300 299 299 298 298 297 296 296 295 295 295 294 292 292 296 298 298 297 296 295 293 291 289 288 287 286 285 284 284 284 283 283 282 282 282 281 281 281 281 281
316 315 315 314 314 313 312 311 310 309 308 308 307 306 305 305 304 303 302 302 301 301 301 301 301 301 301 300 299 299 298 298 298 297 296 296 295 295 295 295 295 295 295 298 299 299 298 298 296 294 291 288 287 286 285 284 283 283 282 282 282 282 281 281 281 281 281 280 280
314 314 314 313 312 311 310 310 309 308 307 306 305 305 304 303 303 302 301 301 301 301 301 301 301 300 300 299 298 298 297 297 297 297 296 296 295 295 295 296 296 297 298 299 299 299 298 297 296 294 292 288 286 285 284 283 283 282 282 281 281 281 281 280 280 280 280 279 279
313 313 312 311 310 309 309 308 307 306 306 305 304 304 303 302 302 301 301 300 300 300 300 300 300 300 299 298 298 297 297 297 297 296 296 296 296 295 295 296 296 297 299 300 299 298 298 297 295 294 292 290 287 285 284 283 283 282 282 281 281 280 280 280 280 280 279 279 279
312 311 310 309 308 308 307 306 306 305 304 304 303 303 302 302 301 301 300 300 300 299 299 299 299 298 298 297 297 297 297 297 297 297 296 295 295 295 296 296 296 297 298 299 299 298 297 296 295 293 292 290 287 284 283 282 282 281 281 281 280 280 279 279 278 278 278 279 278
311 309 309 308 307 306 305 305 305 304 304 303 302 302 301 301 300 300 299 299 299 299 299 298 298 297 297 297 297 297 297 296 297 296 296 295 296 295 295 295 295 296 298 299 298 297 296 295 294 293 291 290 286 284 282 281 281 281 280 280 280 279 279 279 278 278 277 277 278
309 308 307 306 305 305 304 304 304 303 303 302 301 301 300 300 299 299 299 299 298 298 298 297 297 296 296 296 296 296 296 296 296 296 295 295 294 294 294 294 295 296 297 298 298 297 296 295 293 292 291 289 286 283 281 281 280 280 280 279 279 279 279 280 279 278 276 276 276
308 307 306 305 304 304 303 303 303 302 302 301 301 300 299 298 298 298 298 298 297 297 296 296 296 295 295 295 295 295 295 295 295 295 295 295 294 294 294 294 294 296 297 298 297 296 295 294 293 291 290 288 285 282 281 281 281 280 280 279 279 278 278 278 278 278 277 276 276
306 306 304 304 303 303 302 302 302 301 301 300 299 299 298 298 297 297 297 297 296 296 295 295 295 295 294 294 294 294 294 294 294 293 293 293 293 293 293 293 294 296 297 297 296 295 294 293 292 291 289 287 284 282 281 281 281 280 280 279 279 279 279 278 278 277 277 276 276
305 304 303 303 302 302 302 301 301 300 300 299 298 298 297 297 296 296 296 296 295 295 294 294 294 294 294 294 294 293 293 293 292 292 292 292 292 292 292 292 293 295 297 296 296 295 294 293 291 290 288 286 283 281 281 280 280 280 279 279 279 278 278 278 277 277 277 277 277
304 304 303 302 302 302 301 301 300 299 299 298 297 297 296 296 295 295 295 295 294 293 292 293 293 293 292 292 292 292 292 291 291 291 291 292 291 291 291 291 292 294 296 296 295 294 293 292 291 289 287 284 282 281 281 280 280 279 278 278 278 277 277 277 277 277 277 277 277
304 303 302 302 301 301 301 300 299 298 297 297 296 295 295 294 294 294 294 293 292 291 291 291 291 291 291 291 290 290 290 290 290 290 290 291 291 290 290 290 291 292 294 295 294 293 292 291 290 288 286 283 281 281 280 280 280 279 278 277 276 276 276 276 276 277 278 279 280
303 302 302 301 301 300 300 299 298 297 296 296 295 294 294 294 293 293 293 292 291 290 290 290 290 289 289 289 289 289 289 289 289 289 289 289 290 289 289 289 289 291 292 294 293 293 292 291 290 288 285 282 280 280 280 279 279 278 278 277 276 276 276 276 277 278 280 284 286
303 302 302 301 300 300 299 298 297 296 295 295 294 294 293 293 292 292 292 292 290 290 289 289 289 289 289 289 288 288 288 288 289 289 289 288 289 289 289 288 289 290 291 293 292 292 291 290 289 288 285 282 280 279 279 279 278 278 277 277 276 276 276 276 276 278 280 283 288
303 302 301 301 299 299 298 297 296 296 295 294 293 293 292 292 292 291 291 291 290 289 289 288 288 289 289 289 288 288 287 287 288 289 289 289 290 290 290 288 288 289 291 292 292 291 291 290 289 287 285 281 279 279 279 278 278 277 277 276 276 276 276 275 276 276 277 278 284
302 302 301 300 299 298 297 296 295 295 294 293 293 292 292 291 291 291 290 290 289 289 289 288 288 289 289 289 288 287 287 287 287 288 289 290 290 290 290 288 287 288 289 291 291 291 290 289 288 287 285 281 279 278 279 278 277 276 275 275 275 275 276 275 276 276 276 276 278
Wind_Speed
11 10 9 9 8 8 7 6 6 6 6 6 7 7 7 7 7 6 6 6 6 5 5 5 5 5 5 5 6 7 8 8 8 8 7 7 7 8 8 8 8 8 7 7 6 5 5 5 4 4 3 3 3 3 3 3 5 6 6 5 4 4 4 5 5 5 6 5 4
12 11 10 9 9 7 7 6 6 6 6 6 6 7 7 7 7 6 6 6 6 5 5 4 5 5 6 6 6 7 7 8 8 8 7 7 7 8 8 8 8 8 8 7 6 5 4 5 5 4 4 3 3 3 3 3 5 6 7 6 5 4 4 5 5 6 6 6 5
12 11 11 10 10 9 7 7 7 7 7 6 6 6 6 6 6 6 6 5 5 4 4 4 5 6 6 6 6 6 7 8 8 7 6 6 7 7 8 8 8 7 7 7 6 5 5 6 5 5 4 3 4 4 4 5 5 6 6 6 4 4 4 5 5 5 5 5 5
12 12 11 11 12 11 10 8 8 8 7 6 6 6 6 5 5 5 4 4 4 4 4 5 5 6 6 7 6 6 7 8 8 7 6 6 6 7 7 7 7 7 6 6 6 7 7 7 6 5 4 5 5 5 5 5 6 5 5 4 4 4 5 4 4 4 4 4 5
12 12 11 11 12 11 10 8 9 8 7 6 6 6 6 5 4 4 4 4 4 5 5 5 5 5 6 6 7 7 8 9 8 7 7 7 7 7 7 7 7 7 6 6 7 8 8 8 6 5 4 5 5 5 6 6 7 6 4 3 4 4 4 4 4 4 4 4 4
12 12 11 10 11 10 9 8 9 9 8 7 7 7 6 5 5 5 5 5 5 5 6 6 6 6 6 7 7 8 8 9 8 8 8 8 7 7 7 8 8 7 7 7 8 9 9 8 6 5 4 5 5 6 7 7 7 6 5 4 4 4 4 4 4 3 4 5 5
12 12 11 11 11 10 9 9 9 9 9 8 9 9 8 7 6 6 6 6 5 5 6 6 6 6 6 7 8 8 8 8 8 8 8 8 8 8 9 9 9 8 8 8 9 8 8 7 6 5 5 5 5 6 6 7 7 7 6 5 4 4 4 5 4 4 5 7 8
11 11 11 11 11 11 10 10 10 9 9 8 9 10 10 8 8 8 7 6 6 5 5 5 6 7 8 8 8 9 9 9 9 9 8 8 9 10 10 10 9 9 9 9 9 8 8 6 5 5 5 5 5 5 6 8 8 8 8 7 5 4 4 4 4 5 6 8 8
10 11 11 11 11 11 11 11 11 10 9 9 9 9 9 9 9 8 8 6 6 6 6 6 7 8 8 9 9 9 9 9 9 9 8 9 10 10 10 10 10 9 9 8 9 9 8 6 5 5 5 5 5 6 7 9 10 10 9 7 6 6 5 6 6 7 7 8 8
11 11 11 11 11 11 11 11 11 10 10 9 9 9 9 9 9 8 7 6 6 6 6 6 7 8 9 9 9 9 9 9 9 9 9 9 10 10 10 9 10 9 9 8 8 9 8 7 6 6 6 6 7 8 8 9 10 10 9 7 7 8 8 8 8 8 8 8 8
12 11 11 11 11 11 11 11 10 9 9 9 9 9 8 8 8 7 7 6 6 7 7 7 8 8 8 8 9 9 9 8 9 9 10 10 10 10 10 10 10 10 9 8 8 8 8 7 8 8 8 8 8 8 9 10 11 11 10 8 9 9 9 8 8 7 7 7 8
12 11 11 11 11 12 11 11 9 9 8 8 9 9 8 8 8 8 7 7 7 7 7 7 8 8 8 8 9 9 9 9 10 10 10 10 10 10 10 10 10 10 10 9 8 7 7 8 9 10 10 9 8 8 9 10 11 11 11 10 10 9 9 9 8 6 6 7 8
12 12 11 11 12 12 12 10 9 8 8 9 9 8 8 8 8 8 8 8 8 7 7 7 8 8 9 9 9 9 10 10 11 10 10 10 10 10 10 10 10 10 9 9 8 8 8 9 11 11 11 10 8 8 9 11 11 11 11 10 10 9 9 9 8 7 7 8 8
12 12 12 12 13 12 11 10 9 8 9 9 9 8 8 8 9 9 9 9 8 8 7 7 8 8 9 10 10 10 10 11 11 11 11 10 10 10 10 10 10 10 9 8 9 9 10 10 11 11 12 11 10 10 10 11 11 11 10 10 10 9 9 8 8 8 8 8 9
13 13 13 13 13 12 11 10 9 9 9 10 9 9 9 8 9 9 9 9 9 8 8 8 8 8 9 11 11 11 11 11 12 12 11 11 11 10 10 10 10 10 10 9 10 10 11 11 11 11 12 12 12 11 11 11 11 10 10 10 9 9 8 8 8 8 8 9 8
13 13 13 14 13 12 11 10 9 9 9 9 9 9 9 8 8 9 10 10 9 9 9 9 9 9 9 10 11 12 12 12 12 12 12 11 11 11 11 11 11 11 11 11 11 11 11 11 11 11 12 13 12 12 11 11 11 10 10 10 9 9 8 8 8 8 8 9 8
14 14 14 14 13 13 12 10 9 9 9 10 10 10 9 8 8 9 10 10 10 10 10 10 10 10 10 10 10 11 11 11 11 11 11 11 12 12 11 11 11 12 12 12 12 12 11 11 11 12 12 13 12 12 11 11 11 10 10 10 9 9 9 9 9 9 9 9 9
14 14 14 14 14 13 12 11 11 10 11 11 11 10 9 9 9 10 10 11 11 12 12 12 11 10 10 10 9 9 10 10 11 11 11 11 12 12 12 12 12 12 12 13 13 13 13 12 12 12 12 12 12 12 12 11 11 11 11 10 10 9 9 9 8 8 9 9 9
14 14 14 14 14 13 13 13 12 12 12 12 11 11 11 11 11 11 11 11 12 13 14 13 11 11 11 11 10 9 9 11 12 12 12 12 12 13 13 12 12 12 12 13 13 13 13 13 13 12 12 12 12 12 12 12 12 11 11 11 10 10 9 8 8 8 8 8 8
15 14 14 14 14 13 13 13 13 13 13 12 12 12 12 12 12 12 12 12 12 13 14 13 12 12 12 13 12 11 10 10 12 13 13 12 13 13 13 13 13 13 13 13 13 13 13 13 13 13 13 13 13 13 13 13 12 12 11 10 10 10 9 9 8 8 8 8 7
14 14 14 14 14 14 14 14 14 14 14 13 13 13 13 13 13 13 13 13 13 13 14 14 14 13 14 14 14 13 11 10 12 13 13 13 13 13 13 13 13 13 12 12 12 13 13 13 13 13 14 14 14 13 13 13 12 12 11 10 10 10 10 9 9 9 9 8 7
14 14 14 14 14 14 15 15 15 14 14 14 14 13 13 13 13 13 13 13 13 14 14 13 14 14 14 14 14 13 12 11 12 12 12 12 12 12 12 12 13 13 12 12 12 12 13 13 13 13 13 13 13 13 13 12 12 12 12 11 11 11 10 10 10 10 9 9 8
13 13 13 14 15 15 15 15 15 15 14 14 14 14 13 13 13 13 13 13 14 14 13 13 13 13 14 14 14 14 14 13 13 12 12 12 12 12 12 12 12 12 12 11 11 11 12 12 12 12 12 12 12 12 12 12 12 12 12 12 12 11 11 10 10 10 10 9 8
13 13 13 13 15 16 16 16 16 15 15 14 14 14 14 14 14 14 14 14 14 14 13 11 11 12 13 14 15 15 16 16 15 14 13 13 13 13 13 12 12 11 10 9 10 11 12 11 10 11 11 11 12 11 11 11 11 11 11 12 11 11 11 11 11 10 10 9 8
15 15 15 15 16 16 16 16 16 15 15 15 15 15 15 15 15 15 15 15 15 14 14 13 12 12 12 13 14 15 15 16 16 15 14 13 13 13 12 11 10 9 9 11 16 17 17 14 12 11 10 11 11 11 10 10 10 10 11 11 11 11 11 11 10 10 9 9 8
16 16 16 16 16 16 16 16 16 16 16 16 16 16 16 15 15 15 16 16 15 14 14 13 12 12 12 12 14 14 14 14 14 14 14 14 13 13 12 10 9 8 9 14 19 21 21 19 17 14 12 11 11 11 10 10 10 10 11 10 10 10 10 10 9 9 8 8 8
17 17 17 17 17 17 16 16 16 16 16 16 16 16 16 15 15 15 16 16 15 14 13 12 12 12 12 12 14 14 14 13 13 13 14 14 14 13 12 11 9 8 10 17 21 22 22 21 20 18 14 11 11 10 10 9 10 10 10 10 9 10 10 9 9 8 8 7 7
17 17 17 18 18 17 17 16 16 16 16 16 16 16 16 16 16 16 16 15 15 13 12 11 10 10 10 11 13 14 14 14 13 13 13 13 14 14 12 11 10 11 15 20 22 22 22 22 21 20 17 13 11 10 10 10 9 9 9 9 9 9 9 8 7 7 7 7 7
18 18 18 18 18 17 17 17 17 17 16 16 17 17 16 16 16 16 16 15 14 12 10 9 9 9 10 11 13 14 14 14 13 12 13 14 14 13 12 12 12 14 19 23 23 23 22 22 22 21 19 15 11 8 8 8 8 8 8 7 7 7 7 7 6 6 7 7 7
18 18 18 18 18 17 17 17 17 17 16 15 16 16 16 16 16 16 15 14 13 12 10 10 10 11 12 13 13 13 13 13 12 13 14 15 14 14 13 12 12 15 19 23 23 23 23 22 22 21 20 18 13 10 8 8 8 8 8 7 7 7 7 7 7 7 7 6 7
19 19 19 19 18 17 17 17 17 17 16 15 16 16 16 16 15 15 14 14 13 12 12 13 14 14 14 13 13 13 13 13 13 13 14 15 15 15 14 13 12 15 19 23 23 23 23 23 23 22 21 19 14 10 8 8 8 8 7 7 7 7 7 7 7 7 7 7 7
19 19 19 19 18 18 17 17 17 17 16 16 16 16 16 15 15 14 14 14 14 14 15 15 15 15 15 14 14 14 14 14 14 14 14 15 15 15 14 13 13 15 19 23 23 23 23 23 23 23 22 20 15 12 10 10 9 8 8 8 8 7 7 7 7 7 7 7 6
20 20 20 20 19 18 17 17 17 16 16 16 16 16 16 15 15 15 14 14 14 15 15 15 15 15 15 14 14 14 14 14 14 15 15 15 15 15 14 12 12 15 19 23 23 23 24 24 24 24 22 20 15 12 10 10 9 8 8 8 7 7 8 8 7 7 7 6 6
20 20 20 20 19 18 18 17 16 16 16 16 16 16 16 16 16 15 14 14 14 14 14 14 14 14 14 14 14 15 14 14 14 14 14 14 14 14 13 11 11 15 20 23 23 24 24 24 24 24 22 19 14 11 10 10 9 8 8 8 7 7 8 8 8 7 7 6 6
21 21 21 20 19 19 18 17 16 16 17 17 16 16 16 16 16 16 15 14 14 14 13 13 13 13 13 13 14 15 15 14 13 13 13 13 14 14 13 12 12 17 21 23 23 24 24 24 24 23 21 17 12 10 10 10 9 9 9 8 8 8 8 7 7 7 6 6 6
21 21 21 21 20 19 18 17 17 17 17 17 17 16 16 16 15 15 15 15 15 15 14 14 14 14 14 14 13 13 13 14 13 13 13 13 14 14 14 13 14 18 21 23 23 23 24 24 23 22 19 13 10 9 9 9 8 8 8 8 8 7 7 6 6 5 5 5 5
21 21 22 21 20 20 19 18 17 17 17 17 17 17 17 16 15 15 14 15 16 15 15 14 14 14 14 14 13 12 11 12 13 13 13 13 14 15 15 14 14 17 20 22 22 23 23 23 22 20 16 11 9 8 8 8 7 7 8 8 7 6 6 5 4 4 4 4 5
21 21 21 21 21 20 19 18 18 18 18 17 17 16 16 16 15 14 14 14 15 15 15 15 15 14 14 13 13 12 11 11 12 13 13 13 13 14 15 14 14 15 18 21 22 22 22 22 21 18 15 10 8 8 7 7 7 7 7 7 6 5 5 4 4 3 3 5 7
20 20 21 21 21 20 19 18 18 18 18 18 17 16 16 15 14 13 13 13 14 15 16 16 15 14 14 14 13 13 12 11 12 13 13 13 13 14 15 14 13 14 17 20 21 22 22 21 21 19 15 11 8 7 7 7 7 7 6 6 5 5 5 4 4 4 4 5 8
19 20 20 20 20 20 20 19 18 18 18 18 17 17 16 15 14 14 13 13 13 14 15 16 16 15 14 14 14 13 13 12 11 12 12 13 14 15 15 13 13 14 17 20 21 21 21 21 20 18 15 10 8 6 6 7 7 7 6 5 5 5 5 4 4 4 4 5 6
19 19 20 20 20 20 20 19 18 17 17 17 17 16 16 16 15 14 14 13 14 14 14 14 15 15 15 14 13 13 13 12 11 11 12 13 14 14 14 12 13 13 15 18 20 21 21 21 20 18 14 10 7 6 6 6 7 7 6 5 5 5 4 5 5 5 5 5 5
Wind_Direction
180 180 179 176 177 178 179 176 170 168 168 170 170 170 172 177 180 183 185 185 187 187 187 186 184 182 180 182 180 177 175 175 178 180 179 174 169 166 165 165 168 169 170 168 162 155 145 129 113 97 85 85 87 85 85 93 97 96 96 97 100 98 94 91 87 85 84 84 85
181 180 178 175 175 176 175 172 170 168 168 169 169 169 172 177 180 182 183 186 185 181 176 173 169 169 172 179 180 175 171 170 173 174 172 166 164 164 165 167 169 168 165 159 151 142 128 113 105 99 93 92 94 92 87 82 93 97 98 98 98 95 90 85 84 85 86 85 83
180 179 177 175 175 176 176 173 171 168 166 165 166 168 171 178 180 181 181 181 175 169 164 164 162 162 165 172 176 173 167 163 163 161 158 155 159 162 164 165 164 160 154 146 138 127 114 105 102 101 102 104 102 97 88 76 82 90 94 93 94 92 90 88 87 88 87 85 83
178 178 177 177 176 176 175 172 168 164 162 161 161 164 170 178 179 176 170 163 159 160 162 162 159 160 163 167 170 167 160 154 152 149 148 150 156 160 160 156 150 144 137 128 120 113 107 101 98 100 105 107 102 97 90 80 79 81 84 83 87 90 92 92 90 88 87 88 87
178 179 179 177 175 174 172 166 162 160 159 158 160 165 169 174 171 162 155 156 162 163 161 156 156 158 160 162 162 159 153 148 146 146 148 152 156 155 150 139 133 127 121 114 110 106 103 99 98 101 105 105 100 96 92 91 88 85 82 79 83 89 93 94 91 90 92 95 91
178 178 177 174 171 169 166 160 158 157 158 158 161 165 168 171 167 161 158 162 160 155 150 147 148 149 151 154 155 154 150 146 145 146 149 150 149 143 135 126 124 120 115 109 106 104 103 102 103 103 101 98 94 94 96 97 96 94 90 83 80 83 88 90 92 93 93 90 84
175 174 172 168 167 165 162 156 156 156 157 159 163 166 169 169 163 160 158 157 150 146 145 145 144 145 148 152 153 151 149 146 145 145 145 144 140 134 129 125 121 118 115 111 108 106 105 106 106 104 100 97 95 96 98 101 101 99 95 88 80 78 81 87 91 90 86 82 81
170 169 167 163 163 160 157 154 155 156 158 162 166 168 167 163 158 154 151 146 146 147 148 144 144 145 149 152 152 150 148 146 144 143 140 136 133 129 126 123 118 115 112 110 109 107 105 103 103 103 102 99 99 100 102 104 102 100 96 90 84 78 76 80 79 79 80 81 84
166 165 162 158 159 156 154 153 155 157 160 163 166 166 163 156 152 149 147 146 148 148 145 141 142 145 147 149 148 148 147 145 141 137 133 131 129 126 123 119 116 112 110 107 107 106 104 101 99 98 100 101 102 104 105 105 102 99 95 91 86 80 75 73 72 74 78 84 88
163 160 157 155 155 153 151 151 154 155 157 160 161 159 156 151 149 148 147 147 145 143 142 140 142 143 144 145 143 142 141 137 132 129 127 127 126 125 123 120 118 115 112 109 107 105 103 100 98 97 97 100 104 106 106 104 100 97 94 91 88 83 78 73 73 76 81 88 91
159 156 154 153 152 149 148 149 152 153 154 155 155 153 150 148 146 145 143 140 139 140 141 141 141 142 141 139 135 132 129 126 125 124 125 126 126 125 124 123 121 118 116 114 110 107 104 103 103 103 102 102 103 103 102 99 97 95 93 92 90 87 83 79 79 81 85 89 89
154 151 150 148 148 147 147 149 150 150 150 151 151 150 148 145 143 140 136 135 137 140 141 140 139 137 134 129 125 123 122 121 122 123 124 125 124 123 121 120 119 117 116 114 111 109 108 109 109 108 106 103 101 100 99 98 96 95 94 93 91 89 87 85 83 84 85 85 83
149 148 146 146 146 146 146 148 148 149 150 151 151 149 146 142 139 137 135 135 137 137 137 135 132 129 125 122 121 121 122 123 123 123 123 123 121 119 118 117 115 113 112 110 109 109 110 111 111 110 107 103 100 99 98 98 97 96 96 94 92 90 88 87 85 83 81 79 78
146 146 146 146 146 147 147 147 148 149 151 151 149 145 141 139 138 136 135 134 133 130 127 124 122 120 121 121 122 123 123 123 122 121 120 119 118 117 116 114 112 110 108 106 106 108 109 110 110 108 106 103 101 99 98 96 96 95 95 94 93 91 89 87 85 82 80 78 77
145 145 146 146 147 147 147 148 149 150 150 148 145 141 138 138 137 134 130 126 122 119 116 114 114 115 117 119 120 120 120 119 119 119 118 117 116 115 114 112 110 108 107 106 105 104 105 106 105 104 103 102 100 98 96 94 93 93 93 93 93 91 88 85 82 80 80 79 77
145 146 146 147 147 147 147 149 148 148 147 144 141 139 137 135 130 126 121 118 115 112 110 110 111 111 111 112 114 116 116 117 118 118 118 118 116 115 113 111 110 109 108 106 103 100 99 99 99 100 100 99 97 95 93 91 91 91 91 91 90 88 86 83 82 81 81 82 81
145 146 147 147 147 147 147 147 145 144 142 139 137 134 130 125 121 118 117 116 115 113 111 110 110 109 109 109 111 113 115 117 117 118 118 118 117 115 113 111 110 109 108 106 103 100 97 96 96 96 96 96 94 92 91 90 89 88 87 86 84 83 82 82 83 84 85 85 85
146 147 147 147 147 146 145 142 139 137 135 133 129 125 120 117 116 115 116 117 117 115 113 110 109 109 109 110 110 112 113 115 115 115 115 116 115 113 112 110 108 107 106 104 104 102 101 99 98 96 95 94 93 92 91 91 90 89 87 84 81 79 77 77 80 82 85 86 87
146 146 147 146 146 144 140 136 133 130 127 124 120 118 116 116 116 116 116 116 116 115 114 111 109 108 108 108 107 107 107 109 110 110 110 111 111 110 108 107 104 104 103 103 103 103 103 102 100 99 97 96 95 94 94 93 92 89 86 81 77 74 72 71 72 75 79 82 83
146 146 146 146 142 138 133 129 126 123 121 118 117 116 117 117 116 115 115 115 115 114 113 112 111 110 108 107 105 104 103 104 106 106 107 107 107 107 106 105 103 102 102 102 103 103 103 103 102 101 100 100 99 98 96 94 91 88 84 80 76 73 72 71 71 71 72 74 75
146 146 144 141 135 130 126 123 120 118 117 116 115 116 115 114 113 113 114 115 113 111 110 110 111 111 110 108 105 103 102 100 102 103 103 103 103 104 104 104 103 102 101 101 102 103 103 103 102 102 101 100 100 99 98 95 91 88 85 82 78 75 73 72 71 70 68 67 66
144 141 137 131 126 122 120 118 117 115 114 113 113 112 111 110 109 110 110 110 108 106 105 107 108 109 109 108 107 104 102 98 97 98 99 99 99 100 100 101 100 100 99 99 99 99 99 99 99 100 100 99 98 98 98 96 94 91 88 85 81 77 73 70 68 66 64 61 58
136 130 124 120 119 118 118 117 115 114 112 111 110 109 108 107 106 105 105 104 102 101 100 101 103 105 106 107 107 105 103 99 97 95 95 97 96 96 95 94 95 95 95 96 97 97 97 96 96 96 97 98 96 96 96 96 96 94 91 87 82 77 71 67 65 62 59 55 51
124 121 119 118 118 118 117 116 115 113 111 110 109 108 106 105 104 102 101 99 98 98 98 99 100 102 103 104 105 105 104 103 101 98 96 95 95 94 93 92 91 92 95 98 102 104 103 102 99 98 97 97 96 95 94 94 94 93 92 88 84 78 72 66 63 60 57 52 48
119 118 118 118 118 117 116 115 114 113 112 111 109 107 106 105 104 102 100 98 98 98 99 101 101 101 101 101 102 102 103 103 103 102 100 98 97 96 96 94 94 95 99 105 108 109 109 109 108 106 103 100 99 96 93 90 90 90 90 88 86 82 76 69 64 60 57 53 49
119 119 118 118 117 116 115 114 113 113 112 111 109 107 106 105 104 103 101 100 99 100 101 102 102 102 102 101 101 100 100 100 102 103 104 103 101 99 98 98 98 99 104 111 111 111 111 110 110 109 106 104 102 99 94 89 87 86 86 86 85 84 81 75 69 63 59 55 51
120 119 119 117 115 114 114 114 113 112 112 111 110 109 108 107 106 105 103 102 101 101 101 101 102 102 101 100 100 100 100 100 101 102 104 106 104 103 102 101 102 104 109 114 113 112 111 110 109 107 105 103 101 99 96 92 87 85 83 82 82 82 82 81 76 71 64 58 54
121 120 118 115 114 114 114 113 112 112 112 112 111 111 110 109 108 107 105 104 104 103 101 100 101 101 100 98 99 100 102 103 103 104 104 104 104 103 103 104 105 109 112 114 113 111 110 109 108 107 105 103 100 98 96 94 90 86 83 81 80 80 80 80 79 75 70 63 58
120 119 117 115 114 114 114 113 113 112 112 112 112 112 111 111 110 109 107 106 105 104 104 104 102 100 99 100 101 102 103 104 105 105 105 103 101 100 101 103 105 110 112 113 112 111 110 109 108 106 105 102 99 95 92 91 90 87 84 82 80 79 79 79 77 75 73 69 64
119 117 116 115 114 114 114 114 113 113 112 112 113 113 112 111 110 109 107 106 105 105 106 106 104 103 104 106 105 105 104 105 106 106 104 103 101 100 101 102 105 109 112 112 111 110 109 108 106 104 102 99 95 92 90 89 88 87 86 84 82 81 81 80 78 76 74 74 71
119 117 116 114 114 114 114 114 113 113 113 113 114 113 111 109 109 108 107 106 105 105 105 104 105 105 106 107 106 106 106 106 106 105 103 103 102 102 101 101 104 108 111 112 110 109 108 107 104 102 100 97 95 92 90 89 88 88 88 87 86 84 83 82 78 76 75 75 76
119 118 116 115 114 114 114 114 114 114 114 114 113 111 108 107 107 106 106 106 106 105 105 105 105 105 105 105 105 105 106 106 106 105 105 104 104 103 102 102 104 108 111 112 110 109 107 105 103 101 99 97 95 93 91 90 89 88 87 86 85 84 83 82 79 77 75 76 79
120 118 117 116 116 115 115 115 115 115 115 113 111 109 107 107 106 105 104 105 105 106 106 106 107 107 107 108 107 106 105 105 105 106 106 106 105 105 104 103 105 109 112 112 110 109 107 106 104 102 100 98 96 94 93 92 91 89 87 85 83 81 80 79 78 76 74 73 76
121 120 118 117 117 116 116 116 116 115 114 111 109 109 108 108 107 106 105 105 104 104 104 104 105 106 107 108 108 108 107 106 105 106 106 107 106 106 105 105 107 112 113 112 110 109 108 106 105 103 101 98 95 93 92 92 91 89 87 84 79 76 74 74 74 73 72 70 69
123 122 120 120 119 118 118 117 117 115 113 110 109 108 108 107 107 107 107 107 105 103 101 101 102 102 102 102 104 105 107 107 106 106 107 107 106 106 105 106 109 113 114 112 111 110 108 107 105 103 101 97 95 93 92 91 89 87 84 80 74 68 66 67 68 70 70 69 67
125 124 123 122 121 120 119 119 117 114 112 110 109 108 107 106 106 106 108 108 106 104 103 102 102 101 101 100 101 102 105 107 108 107 107 107 107 106 106 106 109 112 113 112 111 110 109 107 106 104 101 98 95 93 92 91 88 84 79 74 67 61 57 57 60 64 69 73 73
126 125 124 123 122 121 120 119 117 114 112 110 110 109 108 107 106 107 108 109 108 106 105 104 103 102 102 102 101 101 102 105 107 107 107 107 107 107 107 107 108 111 113 113 112 111 109 108 106 104 101 97 96 94 93 91 88 83 77 72 64 56 48 45 46 54 68 84 87
126 125 124 124 122 121 120 119 116 114 113 111 110 109 109 108 108 109 110 110 110 109 107 105 103 102 102 103 101 99 98 100 103 105 106 105 106 107 108 108 108 111 113 113 112 111 110 109 107 104 102 99 98 97 95 93 89 84 79 74 66 55 46 39 34 34 52 80 93
125 124 124 123 122 121 120 118 117 115 114 113 111 110 109 108 108 109 109 109 109 109 108 107 105 105 104 103 102 99 97 96 100 102 104 105 107 108 108 108 109 111 112 113 112 112 110 109 107 105 102 99 98 98 97 95 90 85 80 76 70 60 49 43 39 33 33 47 80
124 123 122 122 121 120 119 117 116 116 115 114 112 111 110 109 109 109 109 107 107 107 107 107 107 106 105 104 102 101 99 97 98 101 104 106 107 108 108 108 110 111 112 113 113 112 111 109 107 104 101 97 97 97 97 96 90 85 79 74 72 64 54 43 42 38 29 20 44
123 122 121 120 119 118 118 117 116 115 114 113 113 112 112 111 111 111 110 109 108 107 106 106 106 106 105 104 103 101 100 97 96 98 101 104 106 107 107 107 109 111 112 113 113 112 111 110 108 106 104 100 97 96 96 96 92 87 82 74 71 67 59 48 41 36 29 18 12